Location: Asheville, NC
(35.6000°N, 82.5500°W)
Time: 20:21:47
(UTC-04:00)

LilacSat-2 - Pass Details

Date: 13 March 2018
Orbit: 514 x 537 km, 97.5° (Epoch: 24 June)

Event Time Altitude Azimuth Distance (km) Brightness Sun altitude
Rises 06:24:15 0° 37° (NE) 2,676 ? -17.0°
Reaches altitude 10° 06:27:33 10° 68° (ENE) 1,784 ? -16.3°
Maximum altitude 06:29:10 12° 93° (E) 1,641 ? -16.0°
Drops below altitude 10° 06:30:47 10° 118° (ESE) 1,782 ? -15.6°
Sets 06:34:04 0° 149° (SSE) 2,669 ? -15.0°
